STARLINK-31674, 59517

Orbit data source: Space-Track

STARLINK-31674, 59517 is a payload satellite owned by SpaceX/Seattle (US) in LEO that was launched on Wed, 17 Apr 2024 UTC via an FALCON 9 launch vehicle from the Air Force Eastern Test Range (AFETR). Payload-class satellites include a variety of spacecraft equipped with specific instruments for various scientific and technological missions. These include communications satellites like Starlink; space stations such as the ISS; scientific satellites like the Hubble; Earth observation satellites from companies like Planet Labs, Umbra, and HawkEye 360; GPS; miniature CubeSats for education and research; and military/defense satellites.

Loading next visibility...
Identifier
59517, 2024-073G
Orbit
LEO
Country
Flag of USUS
Related business
Manufacturer
SpaceX/Seattle
Mission
Operational Commercial Communications
Bus & Motor
STARLINK V2M, Unknown motor
Mass
730 kg wet, ~700 kg dry
Launch date (UTC)
2024-04-17 (2 years ago)
Launch vehicle
FALCON 9
Launch site
Air Force Eastern Test Range (AFETR)
Object type
Payload
Rocket body
Debris
Shape & HBR
Box + 2 Pan, 17.7 m
Radar Cross Section
33.884 m², Large (>1 m²)

Expand to show TLE details & history
Last TLE update: 2 days ago

TLE from 2 days ago
0 STARLINK-31674
1 59517U 24073G   26171.13052829 -.00000916  00000-0 -23793-4 0  9996
2 59517  43.0041  99.3967 0000915 259.9963 100.0785 15.27558080121840
Epoch: 2026-06-20T03:07Z
TLE epoch observation values (Epoch: 2026-06-20T03:07:57.644Z)
Latitude
-0.00004°
Longitude
144.05691°
Altitude
483.001 km
Speed
7.626 km/s
True Right ascension
06h 37m 35s
True Declination
0° 00' 00"
Sunlit
Object was in daylight at epoch
Visualization orbit readout
Latitude
Unknown
Longitude
Unknown
Altitude
Unknown
Speed
Unknown
Apparent Right ascension
Unknown
Apparent Declination
Unknown
Sunlit
N/A
Visualization observer readout
Local Sidereal Time
15:45:01
Azimuth
Unknown
Elevation
Unknown
Doppler factor
Unknown
Orbital elements
Apogee altitude
485.687 km
Perigee altitude
484.431 km
Semi-major axis
6,863.196 km
Eccentricity
0.00009
Inclination
43.0041°
RAAN
99.3967°
Arg. of periapsis
259.9963°
True anomaly
100.08882°
Mean anomaly
100.0785°
Eccentric anomaly
100.08366°
Mean motion
3.81728 °/min
Orbital period
94.31 mins
BSTAR
-0.000023793
Loading maneuver chart data...
Computing Atmospheric mass density...
Loading historical data...
Loading historical data...
Loading historical data...
Loading historical data...
Loading historical data...
Loading historical data...
Loading historical data...

Documentation

Showing up to 5 results
|